OKPHM LOWI-LKPR

Flight info

Callsign OKPHM
Flight time 0h 45m
Altitude 29000
Route RTT DCT ERANI DCT MATIG DCT ADLET DCT TIVAP/N0429F300 DCT BUDEX DCT APRAQ
Aircraft E55P/M-SBDFGHJ2RWY/LB2

Departure

Time 2026-05-07 12:43
Airport Innsbruck Airport (LOWI)

Arrival

Time 2026-05-07 13:29
Airport Václav Havel Airport Prague (LKPR)
Time Latitude Longitude Altitude Speed Heading
2026-05-07 12:25 47.25922 11.35412 1892 ft 0 kts 260°
2026-05-07 12:39 47.25918 11.35379 1893 ft 5 kts 260°
2026-05-07 12:39 47.25922 11.35325 1893 ft 6 kts 274°
2026-05-07 12:39 47.25954 11.35282 1893 ft 7 kts 355°
2026-05-07 12:39 47.25975 11.35278 1893 ft 0 kts 349°
2026-05-07 12:40 47.25993 11.35273 1893 ft 5 kts 349°
2026-05-07 12:40 47.26058 11.35257 1893 ft 13 kts 346°
2026-05-07 12:40 47.26095 11.35102 1895 ft 23 kts 259°
2026-05-07 12:41 47.26065 11.34812 1897 ft 34 kts 262°
2026-05-07 12:41 47.26020 11.34418 1900 ft 43 kts 263°
2026-05-07 12:41 47.25972 11.33976 1907 ft 42 kts 260°
2026-05-07 12:41 47.25932 11.33595 1921 ft 33 kts 262°
2026-05-07 12:42 47.25893 11.33292 1923 ft 27 kts 262°
2026-05-07 12:42 47.25887 11.33167 1921 ft 10 kts 62°
2026-05-07 12:42 47.25904 11.33324 1924 ft 37 kts 81°
2026-05-07 12:42 47.25982 11.34045 1906 ft 104 kts 81°
2026-05-07 12:43 47.26122 11.35313 2041 ft 139 kts 78°
2026-05-07 12:43 47.26296 11.36770 2535 ft 155 kts 78°
2026-05-07 12:43 47.26513 11.38425 3069 ft 175 kts 79°
2026-05-07 12:43 47.26755 11.40282 3575 ft 200 kts 78°
2026-05-07 12:44 47.27045 11.42408 4245 ft 219 kts 78°
2026-05-07 12:44 47.27372 11.44633 5031 ft 233 kts 75°
2026-05-07 12:44 47.27819 11.46978 5793 ft 247 kts 76°
2026-05-07 12:44 47.28291 11.49476 6547 ft 260 kts 77°
2026-05-07 12:45 47.28788 11.52124 7326 ft 272 kts 77°
2026-05-07 12:45 47.29294 11.54823 8072 ft 282 kts 77°
2026-05-07 12:45 47.29826 11.57653 8831 ft 291 kts 77°
2026-05-07 12:45 47.30363 11.60518 9574 ft 299 kts 77°
2026-05-07 12:46 47.30923 11.63512 10330 ft 306 kts 77°
2026-05-07 12:46 47.31879 11.66299 11082 ft 316 kts 56°
2026-05-07 12:46 47.33148 11.68989 11835 ft 322 kts 55°
2026-05-07 12:46 47.34444 11.71709 12586 ft 327 kts 55°
2026-05-07 12:47 47.35760 11.74477 13337 ft 331 kts 55°
2026-05-07 12:47 47.37067 11.77238 14077 ft 335 kts 54°
2026-05-07 12:47 47.38397 11.80052 14823 ft 338 kts 54°
2026-05-07 12:47 47.39712 11.82964 15480 ft 345 kts 62°
2026-05-07 12:48 47.40712 11.86174 16108 ft 351 kts 65°
2026-05-07 12:48 47.41726 11.89508 16738 ft 358 kts 65°
2026-05-07 12:48 47.42740 11.92849 17358 ft 363 kts 65°
2026-05-07 12:48 47.43787 11.96288 17989 ft 367 kts 64°
2026-05-07 12:49 47.44841 11.99750 18614 ft 371 kts 64°
2026-05-07 12:49 47.45895 12.03214 19133 ft 378 kts 64°
2026-05-07 12:49 47.46975 12.06768 19660 ft 384 kts 64°
2026-05-07 12:49 47.48068 12.10371 20186 ft 389 kts 63°
2026-05-07 12:50 47.49175 12.14028 20713 ft 394 kts 63°
2026-05-07 12:50 47.50316 12.17799 21250 ft 399 kts 63°
2026-05-07 12:50 47.51439 12.21518 21774 ft 402 kts 62°
2026-05-07 12:50 47.52585 12.25319 22305 ft 406 kts 62°
2026-05-07 12:51 47.53737 12.29147 22836 ft 409 kts 62°
2026-05-07 12:51 47.54884 12.32961 23362 ft 411 kts 61°
2026-05-07 12:51 47.56049 12.36843 23895 ft 413 kts 61°
2026-05-07 12:51 47.57208 12.40710 24424 ft 415 kts 60°
2026-05-07 12:52 47.58382 12.44636 24960 ft 416 kts 60°
2026-05-07 12:52 47.59539 12.48507 25488 ft 416 kts 60°
2026-05-07 12:52 47.60705 12.52418 26020 ft 416 kts 59°
2026-05-07 12:52 47.61874 12.56342 26555 ft 416 kts 59°
2026-05-07 12:53 47.63040 12.60263 27089 ft 415 kts 58°
2026-05-07 12:53 47.64189 12.64135 27619 ft 414 kts 58°
2026-05-07 12:53 47.65348 12.68040 28139 ft 413 kts 58°
2026-05-07 12:53 47.66497 12.71927 28655 ft 411 kts 58°
2026-05-07 12:54 47.67657 12.75846 28969 ft 416 kts 58°
2026-05-07 12:54 47.68821 12.79771 29011 ft 422 kts 58°
2026-05-07 12:54 47.71202 12.87844 29018 ft 431 kts 58°
2026-05-07 12:55 47.73772 12.95887 29016 ft 423 kts 44°
2026-05-07 12:55 47.77486 13.02640 29020 ft 431 kts 41°
2026-05-07 12:56 47.81346 13.09592 29019 ft 439 kts 41°
2026-05-07 12:56 47.85243 13.16631 29019 ft 441 kts 41°
2026-05-07 12:57 47.89129 13.23662 29019 ft 442 kts 41°
2026-05-07 12:57 47.93044 13.30763 29020 ft 443 kts 41°
2026-05-07 12:58 47.96925 13.37822 29021 ft 444 kts 41°
2026-05-07 12:58 48.00850 13.44984 29021 ft 445 kts 41°
2026-05-07 12:59 48.04738 13.52094 29021 ft 443 kts 41°
2026-05-07 12:59 48.08929 13.58652 29022 ft 435 kts 34°
2026-05-07 13:00 48.13240 13.64998 29030 ft 436 kts 34°
2026-05-07 13:00 48.17537 13.71335 29020 ft 436 kts 35°
2026-05-07 13:01 48.21843 13.77701 29020 ft 437 kts 35°
2026-05-07 13:01 48.26165 13.84108 29020 ft 437 kts 35°
2026-05-07 13:02 48.30486 13.90530 29021 ft 437 kts 35°
2026-05-07 13:02 48.34791 13.96943 29021 ft 437 kts 35°
2026-05-07 13:03 48.39079 14.03347 29021 ft 437 kts 35°
2026-05-07 13:03 48.43373 14.09777 29022 ft 437 kts 35°
2026-05-07 13:04 48.47670 14.16228 29022 ft 438 kts 36°
2026-05-07 13:04 48.51974 14.22705 29022 ft 438 kts 35°
2026-05-07 13:05 48.56326 14.29130 29013 ft 429 kts 28°
2026-05-07 13:05 48.58852 14.31096 29033 ft 408 kts 11°
2026-05-07 13:05 48.61484 14.32663 29025 ft 411 kts 11°
2026-05-07 13:06 48.66896 14.35845 29024 ft 422 kts 11°
2026-05-07 13:06 48.72421 14.38796 29011 ft 413 kts 359°
2026-05-07 13:07 48.75193 14.38600 29030 ft 398 kts 343°
2026-05-07 13:07 48.78018 14.38834 28995 ft 423 kts
2026-05-07 13:07 48.80757 14.40184 28995 ft 412 kts
2026-05-07 13:07 48.83486 14.41482 28991 ft 406 kts
2026-05-07 13:08 48.88824 14.43860 28991 ft 402 kts
2026-05-07 13:08 48.94223 14.46180 28840 ft 405 kts
2026-05-07 13:09 48.96912 14.47327 28538 ft 398 kts
2026-05-07 13:09 48.99506 14.48433 28036 ft 392 kts
2026-05-07 13:09 49.02126 14.49545 27530 ft 391 kts
2026-05-07 13:09 49.04749 14.50658 27022 ft 390 kts
2026-05-07 13:10 49.07355 14.51766 26516 ft 389 kts
2026-05-07 13:10 49.09931 14.52861 26014 ft 388 kts
2026-05-07 13:10 49.12508 14.53957 25530 ft 386 kts
2026-05-07 13:10 49.15083 14.55054 25043 ft 385 kts
2026-05-07 13:11 49.17668 14.56156 24553 ft 384 kts
2026-05-07 13:11 49.20235 14.57251 24012 ft 384 kts
2026-05-07 13:11 49.22783 14.58342 23441 ft 377 kts
2026-05-07 13:11 49.25272 14.59410 22823 ft 369 kts
2026-05-07 13:12 49.27690 14.60446 22212 ft 363 kts
2026-05-07 13:12 49.30100 14.61479 21593 ft 357 kts
2026-05-07 13:12 49.32454 14.62489 20979 ft 352 kts
2026-05-07 13:12 49.34794 14.63492 20266 ft 351 kts
2026-05-07 13:13 49.37137 14.64497 19520 ft 349 kts
2026-05-07 13:13 49.39430 14.65484 18778 ft 345 kts
2026-05-07 13:13 49.41715 14.66469 18021 ft 340 kts
2026-05-07 13:13 49.43985 14.67446 17155 ft 339 kts
2026-05-07 13:14 49.46225 14.68410 16282 ft 339 kts
2026-05-07 13:14 49.48484 14.69384 15401 ft 338 kts 10°
2026-05-07 13:14 49.50737 14.70357 14520 ft 337 kts 10°
2026-05-07 13:14 49.52980 14.71327 13641 ft 336 kts 11°
2026-05-07 13:15 49.55193 14.72286 12772 ft 335 kts 11°
2026-05-07 13:15 49.57442 14.73261 11885 ft 334 kts 12°
2026-05-07 13:15 49.59636 14.74216 11017 ft 333 kts 12°
2026-05-07 13:15 49.61854 14.75183 10136 ft 331 kts 12°
2026-05-07 13:16 49.64029 14.76132 9267 ft 330 kts 12°
2026-05-07 13:16 49.66236 14.77093 8405 ft 328 kts 12°
2026-05-07 13:16 49.68399 14.78037 7532 ft 326 kts 12°
2026-05-07 13:16 49.70548 14.78977 6629 ft 305 kts 12°
2026-05-07 13:17 49.72439 14.79814 5745 ft 273 kts 13°
2026-05-07 13:17 49.74008 14.81191 4870 ft 258 kts 34°
2026-05-07 13:17 49.75404 14.82806 4166 ft 251 kts 34°
2026-05-07 13:17 49.76825 14.84472 4040 ft 258 kts 33°
2026-05-07 13:18 49.78362 14.85917 4026 ft 257 kts 12°
2026-05-07 13:18 49.80075 14.85765 4030 ft 246 kts 333°
2026-05-07 13:18 49.81310 14.84100 4037 ft 237 kts 304°
2026-05-07 13:18 49.82328 14.82082 4022 ft 235 kts 307°
2026-05-07 13:19 49.83354 14.80172 4018 ft 231 kts 309°
2026-05-07 13:19 49.84401 14.78297 4020 ft 227 kts 309°
2026-05-07 13:19 49.85436 14.76477 4033 ft 224 kts 310°
2026-05-07 13:19 49.86384 14.74604 4033 ft 221 kts 307°
2026-05-07 13:20 49.87321 14.72704 4025 ft 220 kts 306°
2026-05-07 13:20 49.87949 14.71439 4052 ft 219 kts 305°
2026-05-07 13:20 49.89163 14.68932 4031 ft 218 kts 306°
2026-05-07 13:20 49.90066 14.67024 4022 ft 222 kts 304°
2026-05-07 13:21 49.91002 14.65099 4025 ft 226 kts 306°
2026-05-07 13:21 49.91968 14.63157 4030 ft 229 kts 305°
2026-05-07 13:21 49.92943 14.61195 4028 ft 230 kts 305°
2026-05-07 13:21 49.93923 14.59230 4019 ft 229 kts 305°
2026-05-07 13:22 49.94868 14.57294 4015 ft 216 kts 306°
2026-05-07 13:22 49.95750 14.55498 4038 ft 206 kts 306°
2026-05-07 13:22 49.96594 14.53751 4023 ft 199 kts 308°
2026-05-07 13:22 49.97417 14.52066 4022 ft 191 kts 309°
2026-05-07 13:23 49.98212 14.50450 4020 ft 180 kts 308°
2026-05-07 13:23 49.98938 14.48968 4018 ft 168 kts 308°
2026-05-07 13:23 49.99620 14.47566 4020 ft 155 kts 309°
2026-05-07 13:23 50.00256 14.46274 4021 ft 143 kts 308°
2026-05-07 13:24 50.00841 14.45072 3890 ft 137 kts 309°
2026-05-07 13:24 50.01404 14.43913 3718 ft 132 kts 310°
2026-05-07 13:24 50.01950 14.42792 3550 ft 128 kts 309°
2026-05-07 13:24 50.02465 14.41732 3374 ft 116 kts 310°
2026-05-07 13:25 50.02929 14.40791 3233 ft 106 kts 309°
2026-05-07 13:25 50.03370 14.39879 3099 ft 106 kts 310°
2026-05-07 13:25 50.03817 14.38967 2964 ft 108 kts 310°
2026-05-07 13:25 50.04267 14.38038 2819 ft 107 kts 310°
2026-05-07 13:26 50.04714 14.37118 2675 ft 106 kts 310°
2026-05-07 13:26 50.05162 14.36194 2532 ft 107 kts 310°
2026-05-07 13:26 50.05610 14.35271 2389 ft 107 kts 310°
2026-05-07 13:26 50.06056 14.34338 2238 ft 107 kts 309°
2026-05-07 13:27 50.06506 14.33401 2104 ft 106 kts 309°
2026-05-07 13:27 50.06945 14.32483 1958 ft 105 kts 310°
2026-05-07 13:27 50.07378 14.31589 1812 ft 102 kts 309°
2026-05-07 13:27 50.07834 14.30646 1684 ft 115 kts 311°
2026-05-07 13:28 50.08314 14.29665 1522 ft 109 kts 310°
2026-05-07 13:28 50.08756 14.28751 1377 ft 103 kts 310°
2026-05-07 13:28 50.09176 14.27881 1238 ft 97 kts 309°
2026-05-07 13:28 50.09549 14.27116 1212 ft 79 kts 307°
2026-05-07 13:29 50.09840 14.26516 1204 ft 40 kts 293°
2026-05-07 13:29 50.09878 14.26505 1202 ft 8 kts 98°
2026-05-07 13:29 50.09875 14.26594 1203 ft 8 kts 88°
2026-05-07 13:29 50.09878 14.26642 1203 ft 0 kts 81°
2026-05-07 13:30 50.09879 14.26652 1203 ft 2 kts 80°
2026-05-07 13:30 50.09888 14.26713 1203 ft 9 kts 72°
2026-05-07 13:31 50.09898 14.26848 1201 ft 17 kts 82°
2026-05-07 13:31 50.09918 14.27077 1199 ft 23 kts 81°
2026-05-07 13:31 50.09942 14.27332 1193 ft 23 kts 83°
2026-05-07 13:31 50.09961 14.27581 1189 ft 21 kts 77°
2026-05-07 13:32 50.09984 14.27795 1186 ft 19 kts 82°
2026-05-07 13:32 50.10002 14.28022 1185 ft 22 kts 90°
2026-05-07 13:32 50.09956 14.28233 1187 ft 18 kts 119°
2026-05-07 13:32 50.09903 14.28378 1190 ft 12 kts 123°
2026-05-07 13:33 50.09850 14.28422 1193 ft 5 kts 166°
2026-05-07 13:33 50.09829 14.28430 1195 ft 1 kts 167°
2026-05-07 13:33 50.09792 14.28466 1197 ft 3 kts 95°
2026-05-07 13:33 50.09792 14.28521 1197 ft 3 kts 170°
2026-05-07 13:34 50.09770 14.28526 1198 ft 2 kts 168°
2026-05-07 13:34 50.09759 14.28530 1199 ft 0 kts 169°